[[{"header":{"parameterUnit":"m.s-1","parameterCategory":2,"la1":30.2991,"la2":30.254,"lo1":-89.0895,"lo2":-89.0444,"dy":0.0017,"dx":0.0017,"nx":28,"ny":28,"refTime":"2024-06-25T03:00:00:Z","depth":"0","parameterNumber":2,"parameterNumberName":"U-component_of_CURRENTS"},"data":[0,0,0,0,0,0,0,0,0,0,0,0,0,0,0,0,0,0,0,0,0,0,0,0,0,0,0,0,0,0,0,0,0,0,0,0,0,0,0,0,0,0,0,0,0,0,0,0,0,0,0,0,0,0,0,0,0,0,0.3061,0.3062,0,0.3172,0.3173,0.3174,0.3225,0.3225,0.3225,0.3225,0.3363,0.3367,0.337,0,0,0,0,0,0,0,0,0,0,0,0,0,0.2922,0.2924,0.3061,0.3062,0.3064,0.3171,0.3173,0.3174,0.3225,0.3225,0.3225,0.3225,0.3362,0.3366,0.337,0,0,0,0,0,0,0,0,0,0,0,0,0,0.3001,0.2925,0.306,0.3103,0.3108,0.3171,0.3173,0.3175,0.3225,0.3225,0.3225,0.3225,0.336,0.3366,0.3371,0.3405,0,0,0.3388,0.339,0,0,0,0,0,0,0,0,0.2997,0.3006,0.3095,0.31,0.3106,0.3186,0.3175,0.3253,0.3225,0.3179,0.3225,0.3225,0.3307,0.3317,0.3335,0.3411,0.3417,0.3388,0.3392,0.3394,0.3396,0,0,0,0,0,0,0,0.2991,0.3002,0.3103,0.3097,0.3103,0.3127,0.3137,0.319,0.3241,0.3183,0.3187,0.3202,0.331,0.333,0.3339,0.3419,0.3388,0.3393,0.3396,0.3399,0.3519,0.3519,0,0,0,0,0,0,0.2979,0.2997,0.31,0.3107,0.3052,0.3129,0.3141,0.3159,0.324,0.3253,0.3202,0.3204,0.3321,0.3333,0.3344,0.3384,0.3394,0.3399,0.3402,0.3519,0.3519,0.3519,0,0,0,0,0,0,0.2976,0.2987,0.3095,0.3055,0.3071,0.3131,0.3151,0.3161,0.3182,0.3254,0.3267,0.3212,0.3321,0.3337,0.3361,0.339,0.3402,0.3407,0.3519,0.3519,0.3519,0.3468,0,0,0,0,0,0,0.2971,0.2985,0.2993,0.3054,0.3072,0.3137,0.3151,0.3163,0.3191,0.3195,0.3267,0.328,0.3322,0.3352,0.3366,0.3398,0.3411,0.3519,0.3519,0.3519,0.3469,0.3466,0.3462,0,0,0,0,0,0.2966,0.2989,0.2992,0.3005,0.3081,0.3138,0.315,0.3191,0.3191,0.3207,0.3225,0.3278,0.3362,0.3355,0.3372,0.3407,0.3519,0.3519,0.3519,0.3471,0.3466,0.3463,0,0,0,0,0,0,0.2947,0.2998,0.3003,0.3043,0.3083,0.3147,0.3172,0.3187,0.3216,0.3216,0.3265,0.3279,0.3318,0.3358,0.3349,0.3439,0.3456,0.3459,0.3413,0.341,0.3406,0.3466,0.3415,0,0,0,0,0,0.294,0.2963,0.3014,0.3046,0.3064,0.3109,0.3135,0.3162,0.3197,0.3211,0.3258,0.3301,0.3333,0.3362,0.3407,0.345,0.3542,0.3486,0.3482,0.3479,0.3537,0.3662,0.3676,0.3518,0.3518,0.3518,0,0,0.2952,0.2974,0.2994,0.3041,0.3075,0.312,0.3126,0.317,0.3208,0.3222,0.3282,0.3293,0.3337,0.338,0.3405,0.3418,0.3565,0.3479,0.3476,0.3538,0.3663,0.368,0.3694,0.3518,0.3518,0.3518,0,0,0.2972,0.2994,0.3014,0.3048,0.309,0.3127,0.3134,0.3193,0.3218,0.3261,0.327,0.329,0.3363,0.3395,0.3418,0.3426,0.3537,0.3437,0.3481,0.3598,0.3614,0.3629,0.374,0.3766,0.3442,0.3442,0.3442,0,0.2964,0.3011,0.3032,0.306,0.3098,0.3127,0.3169,0.3205,0.3264,0.329,0.3281,0.3365,0.3384,0.3437,0.3432,0.3427,0.3514,0.3486,0.3598,0.3615,0.3631,0.3742,0.3771,0.3439,0.344,0.344,0.344,0,0.3003,0.3043,0.3064,0.3108,0.3149,0.3193,0.3244,0.3283,0.3308,0.3345,0.3398,0.3409,0.3473,0.3458,0.3451,0.3557,0.3587,0.3572,0.3613,0.3645,0.3758,0.3789,0.3436,0.3437,0.3437,0.3438,0,0,0.2978,0.3066,0.3075,0.3109,0.3178,0.3219,0.3284,0.3353,0.3401,0.3442,0.3517,0.3531,0.3544,0.3572,0.3557,0.364,0.3786,0.366,0.3667,0.3782,0.4068,0.4,0.4028,0.3797,0.3802,0.3807,0.4092,0,0.2995,0.3066,0.3104,0.3187,0.3241,0.3289,0.3351,0.3414,0.3465,0.3545,0.3566,0.3625,0.3585,0.3603,0.3683,0.3762,0.3872,0.3713,0.4015,0.4025,0.397,0.4063,0.386,0.4091,0.4123,0.4128,0.4132,0,0.3015,0.307,0.3149,0.3245,0.3267,0.3309,0.3415,0.3474,0.3578,0.3619,0.3689,0.3724,0.3829,0.3789,0.4011,0.3916,0.402,0.4079,0.4091,0.4088,0.4018,0.4071,0.4148,0.4009,0.4181,0.4177,0.4173,0,0.3006,0.3097,0.3162,0.3198,0.3309,0.3339,0.3391,0.349,0.3555,0.3676,0.3754,0.3863,0.3956,0.4091,0.4217,0.4142,0.4487,0.4391,0.4441,0.4436,0.4359,0.4338,0.4356,0.4611,0.461,0.461,0.4609,0,0.3015,0.3068,0.3157,0.3201,0.3276,0.3339,0.3419,0.3488,0.3602,0.3699,0.3791,0.3915,0.405,0.4238,0.4318,0.4501,0.4589,0.4511,0.4528,0.4327,0.4301,0.4253,0.4203,0.462,0.4618,0.4616,0.4614,0,0.2995,0.3058,0.3142,0.3247,0.3278,0.3328,0.343,0.3485,0.3606,0.375,0.3803,0.4021,0.4259,0.4403,0.4653,0.4644,0.4672,0.485,0.4601,0.4581,0.4391,0.4346,0.4338,0.4227,0.4921,0.4921,0.4922,0,0.2991,0.3039,0.3161,0.3201,0.3237,0.3315,0.3365,0.3477,0.3543,0.3815,0.3888,0.4176,0.4339,0.4678,0.4753,0.4915,0.4769,0.4797,0.4591,0.441,0.4375,0.4183,0.4074,0.4471,0.4467,0.4465,0.4462,0,0.2991,0.3029,0.3088,0.3181,0.3232,0.3304,0.3378,0.3434,0.3589,0.3717,0.3934,0.4092,0.443,0.4506,0.4722,0.4777,0.452,0.474,0.4633,0.4117,0.3838,0.3725,0.4254,0.4437,0.444,0.4442,0.4443,0.4444,0.2969,0.3007,0.3081,0.314,0.3203,0.3257,0.3264,0.3355,0.3461,0.36,0.3846,0.3982,0.4189,0.4446,0.4493,0.4402,0.4411,0.4239,0.4238,0.4088,0.3851,0.4323,0.4454,0.4457,0.4459,0.4461,0.4463,0,0.2933,0.2976,0.3035,0.3096,0.3103,0.3175,0.324,0.3215,0.3263,0.3442,0.3576,0.3717,0.3813,0.3957,0.4022,0.3905,0.3703,0.3808,0.3484,0.3432,0.3939,0.3782,0.3673,0.3673,0.3674,0.3674,0.3674,0.3674,0.2918,0.2947,0.297,0.2968,0.2996,0.2966,0.2971,0.2956,0.3021,0.3065,0.3113,0.3245,0.352,0.3668,0.3597,0.3507,0.3254,0.3116,0.3151,0.3483,0.352,0.3555,0.3392,0.3204,0.3203,0.2445,0.244,0.2436]},{"header":{"parameterUnit":"m.s-1","parameterCategory":2,"la1":30.2991,"la2":30.254,"lo1":-89.0895,"lo2":-89.0444,"dy":0.0017,"dx":0.0017,"nx":28,"ny":28,"refTime":"2024-06-25T03:00:00:Z","depth":"0","parameterNumber":3,"parameterNumberName":"V-component_of_CURRENTS"},"data":[0,0,0,0,0,0,0,0,0,0,0,0,0,0,0,0,0,0,0,0,0,0,0,0,0,0,0,0,0,0,0,0,0,0,0,0,0,0,0,0,0,0,0,0,0,0,0,0,0,0,0,0,0,0,0,0,0,0,0.0428,0.0428,0,0.0368,0.0368,0.0367,0.0376,0.0377,0.0378,0.0379,0.0397,0.0397,0.0397,0,0,0,0,0,0,0,0,0,0,0,0,0,0.0509,0.0508,0.0429,0.0428,0.0427,0.0368,0.0368,0.0367,0.0376,0.0377,0.0378,0.0379,0.0397,0.0397,0.0397,0,0,0,0,0,0,0,0,0,0,0,0,0,0.0466,0.0508,0.0429,0.0423,0.0422,0.0369,0.0368,0.0367,0.0376,0.0377,0.0378,0.038,0.0398,0.0397,0.0397,0.0367,0,0,0.0395,0.0395,0,0,0,0,0,0,0,0,0.0468,0.0463,0.0425,0.0423,0.0422,0.038,0.0403,0.037,0.0375,0.0395,0.0379,0.038,0.0397,0.0396,0.0383,0.0368,0.0369,0.0395,0.0395,0.0395,0.0394,0,0,0,0,0,0,0,0.0471,0.0465,0.0406,0.0424,0.0422,0.0409,0.0405,0.0396,0.0392,0.0393,0.0393,0.0384,0.0397,0.0384,0.0384,0.0369,0.0395,0.0395,0.0394,0.0394,0.0383,0.0383,0,0,0,0,0,0,0.0476,0.0468,0.0408,0.0404,0.0447,0.0407,0.0402,0.0393,0.039,0.039,0.0383,0.0384,0.0384,0.0384,0.0385,0.0377,0.0395,0.0394,0.0394,0.0383,0.0383,0.0383,0,0,0,0,0,0,0.0478,0.0471,0.041,0.0434,0.0425,0.0404,0.0394,0.0391,0.0382,0.0381,0.0383,0.0377,0.0385,0.0385,0.0372,0.0377,0.0394,0.0393,0.0383,0.0383,0.0383,0.0344,0,0,0,0,0,0,0.0481,0.0472,0.0462,0.0434,0.0424,0.0388,0.0392,0.0389,0.0373,0.0375,0.0376,0.0379,0.0386,0.0372,0.0371,0.0377,0.0393,0.0383,0.0383,0.0383,0.0346,0.0343,0.0341,0,0,0,0,0,0.0484,0.0479,0.0462,0.0454,0.0412,0.0388,0.0382,0.0372,0.0372,0.0368,0.0359,0.0379,0.0373,0.037,0.037,0.0375,0.0383,0.0383,0.0383,0.0347,0.0343,0.0341,0,0,0,0,0,0,0.0523,0.0477,0.046,0.0444,0.0417,0.0389,0.0383,0.0368,0.0355,0.0362,0.036,0.0362,0.0354,0.0367,0.0365,0.0375,0.0388,0.0388,0.0362,0.0359,0.0356,0.0418,0.0393,0,0,0,0,0,0.0519,0.0498,0.0458,0.0446,0.0433,0.0403,0.0389,0.0381,0.0365,0.0361,0.0357,0.0359,0.035,0.0356,0.0353,0.0348,0.0385,0.0359,0.0356,0.0354,0.0405,0.0445,0.0451,0.0382,0.0382,0.0382,0,0,0.0542,0.0503,0.0499,0.0451,0.0431,0.0416,0.04,0.0386,0.0383,0.0365,0.0364,0.0342,0.0344,0.0338,0.0339,0.0352,0.0383,0.0354,0.0352,0.0406,0.0446,0.0453,0.0459,0.0382,0.0382,0.0382,0,0,0.0558,0.0531,0.0512,0.0487,0.0444,0.0429,0.0424,0.0393,0.0393,0.0374,0.036,0.0346,0.0337,0.0338,0.0338,0.0324,0.036,0.0319,0.0366,0.0401,0.0408,0.0414,0.0426,0.0434,0.0328,0.0328,0.0328,0,0.057,0.0544,0.0507,0.0477,0.0469,0.0437,0.0432,0.0419,0.039,0.0405,0.0384,0.0375,0.0349,0.0362,0.0347,0.0322,0.0345,0.0368,0.0399,0.0407,0.0414,0.0425,0.0435,0.0326,0.0327,0.0327,0.0327,0,0.0562,0.0547,0.0541,0.0492,0.0483,0.0475,0.0456,0.0456,0.0447,0.0443,0.0452,0.0409,0.0428,0.0388,0.0358,0.0392,0.0388,0.0379,0.0407,0.0419,0.0429,0.044,0.0324,0.0324,0.0325,0.0325,0,0,0.0585,0.0537,0.0538,0.0539,0.0493,0.05,0.0502,0.0511,0.056,0.0515,0.0577,0.0506,0.0506,0.0508,0.0462,0.0471,0.0486,0.0449,0.0452,0.0464,0.0556,0.0483,0.0487,0.0481,0.0483,0.0485,0.0526,0,0.0587,0.055,0.053,0.0548,0.0546,0.0539,0.0566,0.0579,0.0594,0.0647,0.0615,0.065,0.0546,0.0564,0.0549,0.0521,0.0521,0.0476,0.0545,0.0548,0.0483,0.05,0.045,0.0477,0.0536,0.0538,0.054,0,0.0586,0.0567,0.0565,0.0606,0.0612,0.0623,0.0699,0.0721,0.0776,0.0802,0.0822,0.0815,0.0813,0.0736,0.0709,0.0687,0.0633,0.0594,0.0595,0.0567,0.0496,0.0485,0.0495,0.0275,0.0556,0.0555,0.0554,0,0.0628,0.0613,0.062,0.0619,0.0643,0.0677,0.0708,0.0769,0.084,0.092,0.1003,0.0982,0.1028,0.095,0.0838,0.0796,0.0819,0.0755,0.0637,0.063,0.0629,0.0617,0.0449,0.0763,0.0763,0.0763,0.0763,0,0.0638,0.0657,0.0645,0.0657,0.0732,0.0736,0.0847,0.089,0.0991,0.1128,0.1099,0.1219,0.1094,0.1079,0.093,0.0821,0.0894,0.0675,0.0651,0.0605,0.0591,0.0434,0.0343,0.0765,0.0764,0.0764,0.0764,0,0.0677,0.0654,0.0695,0.0729,0.075,0.0815,0.0927,0.1026,0.1114,0.1299,0.1345,0.1426,0.1428,0.1263,0.117,0.0975,0.0731,0.0791,0.0725,0.0691,0.0341,0.0252,0.0165,0.008,0.0676,0.0675,0.0673,0,0.0683,0.0695,0.0754,0.0804,0.0818,0.0905,0.0989,0.1079,0.1205,0.1445,0.1563,0.1635,0.1721,0.1521,0.1201,0.0935,0.0747,0.0686,0.0585,0.0336,0.022,0.0159,0.009,0.0552,0.055,0.0549,0.0547,0,0.0721,0.0742,0.078,0.0877,0.0962,0.1077,0.1204,0.132,0.1488,0.1665,0.1921,0.2013,0.1848,0.16,0.1201,0.0975,0.0518,0.0642,0.0425,0.0155,0.0048,-0.0051,0.0487,0.0533,0.0534,0.0535,0.0536,0.0537,0.0769,0.0814,0.0875,0.0974,0.1088,0.1263,0.1392,0.1556,0.1792,0.2076,0.2147,0.2276,0.1874,0.1351,0.1046,0.0376,0.0442,0.0154,0.0082,0.0054,-0.0077,0.0409,0.0392,0.0393,0.0393,0.0394,0.0394,0,0.0845,0.0886,0.0972,0.1124,0.1278,0.1319,0.1558,0.1715,0.2009,0.2195,0.2391,0.2183,0.1682,0.1132,0.0299,-0.0123,-0.0267,-0.0357,-0.0462,-0.0494,-0.0029,-0.0091,-0.0262,-0.0262,-0.0261,-0.0261,-0.0261,-0.0261,0.089,0.0977,0.1015,0.1265,0.1387,0.1624,0.1778,0.2006,0.2166,0.2373,0.2371,0.236,0.1926,0.052,-0.0446,-0.0668,-0.0911,-0.0968,-0.1064,-0.0791,-0.075,-0.071,-0.0794,-0.111,-0.1111,-0.1512,-0.1516,-0.1519]}],[{"header":{"parameterUnit":"m.s-1","parameterCategory":2,"la1":30.2991,"la2":30.254,"lo1":-89.0895,"lo2":-89.0444,"dy":0.0017,"dx":0.0017,"nx":28,"ny":28,"refTime":"2024-06-25T03:00:00:Z","depth":"2","parameterNumber":2,"parameterNumberName":"U-component_of_CURRENTS"},"data":[0,0,0,0,0,0,0,0,0,0,0,0,0,0,0,0,0,0,0,0,0,0,0,0,0,0,0,0,0,0,0,0,0,0,0,0,0,0,0,0,0,0,0,0,0,0,0,0,0,0,0,0,0,0,0,0,0,0,0.2019,0.2016,0,0.2038,0.2042,0.2045,0.2102,0.21,0.2097,0.2096,0.1892,0.1888,0.1885,0,0,0,0,0,0,0,0,0,0,0,0,0,0.2065,0.2067,0.2019,0.2016,0.2013,0.2038,0.2042,0.2045,0.2102,0.2099,0.2097,0.2095,0.1893,0.1889,0.1884,0,0,0,0,0,0,0,0,0,0,0,0,0,0.2095,0.2068,0.202,0.2018,0.2016,0.2037,0.2042,0.2046,0.2102,0.2099,0.2096,0.2093,0.1894,0.1889,0.1884,0.1912,0,0,0.1868,0.1865,0,0,0,0,0,0,0,0,0.2093,0.2098,0.2021,0.2018,0.2015,0.2033,0.1981,0.1978,0.2103,0.2107,0.2096,0.2092,0.1897,0.1891,0.1956,0.1902,0.1894,0.1867,0.1864,0.1862,0.186,0,0,0,0,0,0,0,0.2091,0.2097,0.2063,0.2017,0.2013,0.2025,0.203,0.1985,0.2043,0.2107,0.2102,0.2048,0.1898,0.1962,0.195,0.1891,0.1867,0.1862,0.1859,0.1857,0.1851,0.1854,0,0,0,0,0,0,0.2019,0.2095,0.2062,0.206,0.2007,0.2024,0.2031,0.206,0.2048,0.2034,0.2051,0.205,0.1972,0.1956,0.1942,0.199,0.1862,0.1857,0.1854,0.1848,0.1852,0.1855,0,0,0,0,0,0,0.2022,0.202,0.206,0.2044,0.2045,0.2022,0.2056,0.2061,0.2145,0.2001,0.199,0.2127,0.1969,0.195,0.1962,0.1979,0.1854,0.1849,0.1845,0.1849,0.1854,0.2071,0,0,0,0,0,0,0.2025,0.2024,0.2035,0.2042,0.2042,0.2082,0.2055,0.2062,0.2097,0.2099,0.2061,0.2039,0.1965,0.1972,0.1957,0.197,0.1845,0.1841,0.1847,0.1852,0.206,0.2082,0.2101,0,0,0,0,0,0.2029,0.2028,0.2039,0.2031,0.2058,0.208,0.2089,0.2082,0.2103,0.2155,0.2157,0.2042,0.1994,0.1973,0.1954,0.1965,0.1838,0.1845,0.1852,0.2051,0.2078,0.2101,0,0,0,0,0,0,0.2021,0.203,0.2043,0.2039,0.206,0.2075,0.2078,0.2119,0.2181,0.2161,0.2108,0.2088,0.2106,0.202,0.1997,0.1982,0.1885,0.1889,0.2043,0.2067,0.2088,0.209,0.1841,0,0,0,0,0,0.2028,0.2085,0.2061,0.2083,0.207,0.2109,0.2119,0.212,0.2142,0.2173,0.215,0.2116,0.2124,0.2085,0.206,0.2056,0.2061,0.2043,0.2064,0.2082,0.2074,0.2176,0.2207,0.1878,0.1878,0.1877,0,0,0.2032,0.2041,0.2071,0.2091,0.2107,0.2101,0.212,0.2124,0.2165,0.2126,0.2189,0.2198,0.2152,0.2169,0.216,0.2089,0.2189,0.2091,0.2107,0.2088,0.2187,0.2219,0.2248,0.1882,0.1881,0.1881,0,0,0.2053,0.2078,0.2115,0.212,0.2099,0.211,0.2122,0.2148,0.2206,0.2269,0.2267,0.2321,0.2286,0.2289,0.2282,0.24,0.2323,0.2355,0.2426,0.2529,0.2557,0.2582,0.268,0.2712,0.2332,0.2333,0.2333,0,0.208,0.2099,0.2125,0.2122,0.2111,0.2121,0.2126,0.2185,0.223,0.23,0.2282,0.2395,0.2352,0.2435,0.2472,0.2445,0.2487,0.2341,0.256,0.2584,0.2605,0.27,0.2732,0.2344,0.2343,0.2342,0.234,0,0.2081,0.2103,0.211,0.214,0.2141,0.2148,0.2155,0.2206,0.227,0.2348,0.2486,0.2515,0.2585,0.2576,0.2555,0.2681,0.2662,0.261,0.2504,0.2653,0.2742,0.2772,0.236,0.2356,0.2353,0.235,0,0,0.2149,0.2142,0.2138,0.2171,0.2148,0.2168,0.2199,0.2287,0.2386,0.2458,0.2626,0.2692,0.2766,0.2765,0.277,0.2824,0.3041,0.2774,0.2774,0.2885,0.3283,0.3118,0.3133,0.3036,0.3041,0.3045,0.3303,0,0.2173,0.2201,0.2168,0.2205,0.222,0.2213,0.2277,0.2346,0.2452,0.2605,0.2703,0.285,0.2824,0.2893,0.2968,0.3031,0.3119,0.2975,0.3106,0.311,0.2957,0.3161,0.2868,0.3058,0.3331,0.3336,0.334,0,0.2168,0.2197,0.2239,0.23,0.2304,0.2329,0.2442,0.2496,0.2663,0.277,0.2925,0.3008,0.3165,0.3101,0.332,0.3235,0.3282,0.3303,0.3313,0.3089,0.2998,0.2941,0.31,0.3388,0.3384,0.3381,0.3378,0,0.2222,0.2249,0.2317,0.232,0.2363,0.2415,0.2454,0.2577,0.2679,0.2894,0.3026,0.321,0.3353,0.3437,0.3514,0.3442,0.372,0.3631,0.3533,0.3523,0.3255,0.321,0.3781,0.3781,0.3781,0.378,0.3779,0,0.2259,0.2303,0.2368,0.2392,0.2481,0.25,0.2629,0.2699,0.2863,0.3012,0.3153,0.332,0.3443,0.3599,0.3615,0.3697,0.3838,0.3592,0.359,0.3323,0.3284,0.3518,0.3484,0.379,0.3787,0.3786,0.3784,0,0.2278,0.233,0.2381,0.2458,0.2506,0.2555,0.2673,0.2774,0.2953,0.3144,0.3222,0.3478,0.3664,0.3757,0.391,0.3847,0.3901,0.388,0.3553,0.3504,0.3611,0.3586,0.3815,0.3812,0.3809,0.3806,0.3804,0,0.229,0.2341,0.2406,0.2447,0.2486,0.2583,0.2654,0.2796,0.2894,0.3225,0.332,0.3584,0.3667,0.3867,0.3837,0.3859,0.3917,0.3568,0.334,0.3646,0.3623,0.3601,0.358,0.3119,0.3111,0.3105,0.3101,0,0.2292,0.2322,0.234,0.2423,0.2502,0.2558,0.268,0.2763,0.2945,0.3114,0.335,0.3437,0.3635,0.3512,0.3528,0.3487,0.3525,0.3436,0.3927,0.3107,0.2996,0.2969,0.2972,0.3046,0.3051,0.3055,0.3058,0.3061,0.2261,0.2266,0.2316,0.2363,0.2448,0.2511,0.2533,0.2678,0.2788,0.2948,0.3137,0.3178,0.3209,0.3062,0.3016,0.3031,0.3224,0.3042,0.306,0.3084,0.2909,0.2793,0.2776,0.2779,0.2782,0.2785,0.2788,0,0.2179,0.2232,0.2285,0.2311,0.2332,0.2437,0.2528,0.251,0.2589,0.2704,0.2786,0.2536,0.2429,0.2539,0.2461,0.2429,0.2404,0.2334,0.2278,0.2333,0.2382,0.2168,0.1841,0.1838,0.1836,0.1833,0,0,0.2163,0.2162,0.2176,0.217,0.2235,0.2247,0.2271,0.227,0.2303,0.2235,0.2218,0.2273,0.2404,0.2069,0.2031,0.1941,0.212,0.1866,0.2625,0.2613,0.2658,0.279,0.2521,0,0,0,0,0]},{"header":{"parameterUnit":"m.s-1","parameterCategory":2,"la1":30.2991,"la2":30.254,"lo1":-89.0895,"lo2":-89.0444,"dy":0.0017,"dx":0.0017,"nx":28,"ny":28,"refTime":"2024-06-25T03:00:00:Z","depth":"2","parameterNumber":3,"parameterNumberName":"V-component_of_CURRENTS"},"data":[0,0,0,0,0,0,0,0,0,0,0,0,0,0,0,0,0,0,0,0,0,0,0,0,0,0,0,0,0,0,0,0,0,0,0,0,0,0,0,0,0,0,0,0,0,0,0,0,0,0,0,0,0,0,0,0,0,0,-0.058,-0.0583,0,-0.0677,-0.0675,-0.0673,-0.0647,-0.0649,-0.065,-0.0652,-0.0801,-0.0803,-0.0806,0,0,0,0,0,0,0,0,0,0,0,0,0,-0.0362,-0.0363,-0.0579,-0.0584,-0.0588,-0.0677,-0.0675,-0.0672,-0.0647,-0.0649,-0.0651,-0.0652,-0.08,-0.0803,-0.0806,0,0,0,0,0,0,0,0,0,0,0,0,0,-0.0422,-0.0363,-0.0578,-0.0614,-0.0621,-0.0677,-0.0675,-0.0672,-0.0647,-0.0649,-0.0651,-0.0653,-0.0799,-0.0803,-0.0807,-0.0785,0,0,-0.0818,-0.082,0,0,0,0,0,0,0,0,-0.0418,-0.0425,-0.0604,-0.0612,-0.062,-0.0685,-0.0655,-0.0726,-0.0646,-0.0597,-0.0652,-0.0654,-0.079,-0.0795,-0.0754,-0.0792,-0.0799,-0.0819,-0.0821,-0.0823,-0.0824,0,0,0,0,0,0,0,-0.0414,-0.0421,-0.0579,-0.061,-0.062,-0.0626,-0.0632,-0.0665,-0.0651,-0.0602,-0.0609,-0.0679,-0.079,-0.0749,-0.0758,-0.0801,-0.0819,-0.0822,-0.0825,-0.0826,-0.0859,-0.0857,0,0,0,0,0,0,-0.0476,-0.0417,-0.0577,-0.0586,-0.0565,-0.063,-0.0636,-0.0631,-0.065,-0.0666,-0.0677,-0.0679,-0.0742,-0.0753,-0.0764,-0.0746,-0.0823,-0.0826,-0.0829,-0.086,-0.0858,-0.0857,0,0,0,0,0,0,-0.0469,-0.0485,-0.0574,-0.0538,-0.0555,-0.0635,-0.0628,-0.0633,-0.0574,-0.0715,-0.0723,-0.0618,-0.0744,-0.0758,-0.077,-0.0753,-0.0828,-0.0832,-0.0862,-0.0859,-0.0857,-0.071,0,0,0,0,0,0,-0.046,-0.0479,-0.0471,-0.054,-0.0561,-0.0592,-0.0631,-0.0635,-0.0634,-0.0633,-0.0667,-0.0684,-0.0747,-0.0764,-0.0774,-0.076,-0.0835,-0.0864,-0.0861,-0.0858,-0.0717,-0.0704,-0.0692,0,0,0,0,0,-0.045,-0.0458,-0.0467,-0.049,-0.0552,-0.0595,-0.0596,-0.064,-0.0629,-0.0587,-0.0613,-0.0681,-0.0755,-0.0764,-0.0777,-0.0764,-0.0865,-0.0861,-0.0858,-0.0723,-0.0706,-0.0692,0,0,0,0,0,0,-0.0397,-0.0462,-0.0473,-0.0507,-0.0543,-0.0604,-0.0617,-0.0607,-0.0579,-0.0597,-0.0648,-0.0666,-0.0672,-0.073,-0.0738,-0.0766,-0.0827,-0.0826,-0.072,-0.0705,-0.0692,-0.0688,-0.0838,0,0,0,0,0,-0.0379,-0.0348,-0.0448,-0.0455,-0.0493,-0.0523,-0.0541,-0.0569,-0.0594,-0.0578,-0.061,-0.0651,-0.0665,-0.0693,-0.0729,-0.0735,-0.076,-0.074,-0.0728,-0.0717,-0.0722,-0.0702,-0.0687,-0.0846,-0.0846,-0.0846,0,0,-0.037,-0.0398,-0.039,-0.0435,-0.0468,-0.0518,-0.0526,-0.0568,-0.0578,-0.0609,-0.0602,-0.0602,-0.0652,-0.066,-0.0671,-0.071,-0.0681,-0.0712,-0.0702,-0.0714,-0.0697,-0.0681,-0.0668,-0.0844,-0.0844,-0.0844,0,0,-0.0353,-0.0356,-0.0344,-0.0378,-0.0462,-0.0495,-0.0497,-0.0548,-0.0534,-0.0541,-0.0551,-0.0516,-0.0583,-0.0578,-0.0592,-0.0526,-0.0602,-0.0561,-0.0508,-0.0487,-0.0473,-0.0462,-0.0453,-0.0442,-0.0568,-0.0568,-0.0568,0,-0.0313,-0.0346,-0.0352,-0.0384,-0.044,-0.0479,-0.0523,-0.0515,-0.0548,-0.0513,-0.0551,-0.0501,-0.0541,-0.048,-0.0474,-0.0495,-0.0513,-0.0556,-0.0467,-0.0457,-0.0448,-0.0442,-0.0432,-0.0561,-0.0561,-0.0562,-0.0563,0,-0.0332,-0.0358,-0.0371,-0.0401,-0.0437,-0.0483,-0.0547,-0.0525,-0.0527,-0.0511,-0.0437,-0.0434,-0.0385,-0.04,-0.0434,-0.0365,-0.0406,-0.0437,-0.05,-0.0422,-0.0422,-0.0414,-0.055,-0.0553,-0.0555,-0.0557,0,0,-0.0233,-0.0341,-0.0346,-0.0363,-0.046,-0.0475,-0.0506,-0.0503,-0.0429,-0.0446,-0.0333,-0.0333,-0.0259,-0.0267,-0.0252,-0.0263,-0.0202,-0.0336,-0.0338,-0.0316,-0.0172,-0.0268,-0.0269,-0.0226,-0.0224,-0.0223,-0.0191,0,-0.0233,-0.0269,-0.0347,-0.039,-0.0435,-0.0485,-0.0481,-0.0472,-0.0423,-0.0318,-0.0276,-0.0175,-0.0228,-0.0153,-0.0159,-0.0166,-0.018,-0.021,-0.0263,-0.0264,-0.0349,-0.0262,-0.0261,-0.0239,-0.0183,-0.0182,-0.0181,0,-0.0249,-0.027,-0.031,-0.0355,-0.0375,-0.0382,-0.0324,-0.0328,-0.0222,-0.016,-0.0043,-0.0001,0.0078,-0.0005,0.0011,-0.0009,-0.0089,-0.0143,-0.0143,-0.0285,-0.0345,-0.0314,-0.0228,-0.0168,-0.0169,-0.017,-0.0171,0,-0.0166,-0.0243,-0.0247,-0.0276,-0.034,-0.0311,-0.0312,-0.024,-0.017,-0.0007,0.0117,0.0185,0.0294,0.0198,0.0101,0.0064,0.0056,0.0011,-0.0156,-0.0163,-0.0201,-0.0216,-0.0032,-0.0032,-0.0032,-0.0032,-0.0032,0,-0.0144,-0.0144,-0.018,-0.0186,-0.0143,-0.0209,-0.0097,-0.0059,0.0063,0.021,0.0259,0.0412,0.0338,0.0327,0.0169,0.0052,0.0132,-0.0133,-0.0155,-0.0151,-0.0161,-0.0147,-0.016,-0.0031,-0.0031,-0.0031,-0.0031,0,-0.007,-0.0097,-0.0126,-0.0151,-0.0112,-0.0083,0.0006,0.0116,0.0232,0.0438,0.0498,0.0617,0.0607,0.0473,0.0344,0.0191,0.0037,-0.0054,-0.0057,-0.0083,-0.0214,-0.0221,-0.0189,-0.0192,-0.0195,-0.0197,-0.0199,0,-0.0031,-0.0027,-0.0067,-0.0031,-0.0025,0.005,0.0134,0.0206,0.0331,0.0564,0.068,0.0747,0.0751,0.0549,0.0308,0.0038,-0.0,-0.015,-0.0235,-0.0202,-0.0227,-0.023,-0.0233,-0.0206,-0.0207,-0.0209,-0.021,0,0.0027,0.0008,-0.0016,0.0054,0.0136,0.0215,0.0349,0.046,0.058,0.0768,0.0952,0.0944,0.0771,0.0519,0.0155,-0.0036,-0.0106,-0.0191,-0.01,-0.0196,-0.0223,-0.0247,-0.0247,-0.0222,-0.0221,-0.022,-0.0219,-0.0219,0.0064,0.0077,0.0076,0.0136,0.0233,0.0385,0.0508,0.0677,0.0863,0.1112,0.1068,0.1102,0.0772,0.032,0.002,-0.0216,-0.0223,-0.0341,-0.0332,-0.0324,-0.0361,-0.0395,-0.0432,-0.0432,-0.0432,-0.0432,-0.0432,0,0.0083,0.0158,0.021,0.0274,0.0387,0.0452,0.0666,0.0804,0.1068,0.1198,0.1297,0.0988,0.0642,0.0325,-0.006,-0.0375,-0.0365,-0.0449,-0.0366,-0.0355,-0.0345,-0.038,-0.0457,-0.0457,-0.0457,-0.0457,0,0,0.0134,0.0191,0.0219,0.0397,0.0508,0.0738,0.0876,0.1098,0.1229,0.1348,0.1369,0.121,0.0738,0.0456,0.0045,-0.0172,-0.018,-0.0221,-0.0181,-0.0027,-0.0011,-0.0279,-0.0322,0,0,0,0,0]}],[{"header":{"parameterUnit":"m.s-1","parameterCategory":2,"la1":30.2991,"la2":30.254,"lo1":-89.0895,"lo2":-89.0444,"dy":0.0017,"dx":0.0017,"nx":28,"ny":28,"refTime":"2024-06-25T03:00:00:Z","depth":"4","parameterNumber":2,"parameterNumberName":"U-component_of_CURRENTS"},"data":[0,0,0,0,0,0,0,0,0,0,0,0,0,0,0,0,0,0,0,0,0,0,0,0,0,0,0,0,0,0,0,0,0,0,0,0,0,0,0,0,0,0,0,0,0,0,0,0,0,0,0,0,0,0,0,0,0,0,0.0723,0.0724,0,0.0704,0.0703,0.0702,0.0717,0.0719,0.072,0.0722,0.083,0.0831,0.0833,0,0,0,0,0,0,0,0,0,0,0,0,0,0.0678,0.0678,0.0723,0.0724,0.0724,0.0704,0.0703,0.0702,0.0717,0.0719,0.0721,0.0722,0.0829,0.0831,0.0833,0,0,0,0,0,0,0,0,0,0,0,0,0,0.0673,0.0678,0.0723,0.0736,0.0738,0.0705,0.0703,0.0702,0.0717,0.0719,0.0721,0.0723,0.0829,0.0831,0.0833,0.0803,0,0,0.084,0.0841,0,0,0,0,0,0,0,0,0.0674,0.0674,0.0734,0.0735,0.0737,0.0724,0.0727,0.0745,0.0716,0.0715,0.0722,0.0724,0.081,0.0814,0.0791,0.0808,0.0813,0.084,0.0842,0.0843,0.0843,0,0,0,0,0,0,0,0.0674,0.0674,0.0706,0.0734,0.0736,0.0711,0.0713,0.0729,0.0746,0.0715,0.0719,0.073,0.0811,0.0788,0.0794,0.0814,0.084,0.0842,0.0844,0.0845,0.0941,0.0942,0,0,0,0,0,0,0.0697,0.0675,0.0707,0.0707,0.072,0.0711,0.0713,0.0718,0.0743,0.0751,0.0729,0.0731,0.0784,0.0792,0.0798,0.0888,0.0843,0.0845,0.0846,0.0939,0.0941,0.0942,0,0,0,0,0,0,0.0696,0.07,0.0708,0.0698,0.0699,0.0711,0.0716,0.0717,0.0723,0.0753,0.0762,0.0739,0.0786,0.0795,0.0894,0.0889,0.0846,0.0848,0.0938,0.094,0.0942,0.099,0,0,0,0,0,0,0.0695,0.0699,0.0705,0.07,0.0701,0.0697,0.0715,0.0715,0.0729,0.0733,0.0765,0.0775,0.0788,0.0892,0.0897,0.0891,0.085,0.0937,0.0939,0.0941,0.0987,0.0993,0.0999,0,0,0,0,0,0.0693,0.0689,0.0705,0.071,0.071,0.0697,0.0693,0.0704,0.0728,0.0718,0.08,0.0775,0.0907,0.0897,0.0902,0.0896,0.0935,0.0938,0.0941,0.0984,0.0992,0.0998,0,0,0,0,0,0,0.067,0.0691,0.0709,0.0713,0.0714,0.0704,0.0702,0.0713,0.0756,0.0797,0.0819,0.0836,0.0907,0.0905,0.0892,0.093,0.0903,0.0907,0.0934,0.0941,0.0947,0.0973,0.0851,0,0,0,0,0,0.0671,0.0679,0.0691,0.0696,0.0701,0.0706,0.0705,0.0727,0.0766,0.0785,0.0818,0.0866,0.0909,0.0937,0.0967,0.1003,0.1006,0.0994,0.1,0.1005,0.103,0.1051,0.1062,0.0951,0.0951,0.0951,0,0,0.0671,0.068,0.0689,0.0693,0.0697,0.0706,0.0708,0.073,0.0759,0.0795,0.0859,0.0896,0.0928,0.0979,0.1004,0.0986,0.1035,0.1008,0.1012,0.1035,0.1055,0.1066,0.1076,0.0953,0.0953,0.0952,0,0,0.0665,0.0679,0.0685,0.0682,0.071,0.0721,0.0735,0.0754,0.0784,0.0857,0.0894,0.095,0.1,0.102,0.1038,0.1091,0.107,0.1082,0.1131,0.115,0.116,0.1168,0.1174,0.1182,0.1079,0.1079,0.1079,0,0.0664,0.0668,0.0682,0.068,0.0692,0.0733,0.0748,0.0774,0.0833,0.088,0.0896,0.1003,0.1012,0.1083,0.1107,0.11,0.1121,0.11,0.1159,0.1167,0.1175,0.1178,0.1187,0.1082,0.1081,0.1081,0.1081,0,0.0654,0.0662,0.0662,0.0686,0.0704,0.0716,0.0772,0.0816,0.0876,0.0917,0.1018,0.106,0.1127,0.1111,0.1137,0.119,0.1189,0.1167,0.114,0.1189,0.1189,0.1198,0.1085,0.1084,0.1084,0.1083,0,0,0.0613,0.0651,0.0644,0.0675,0.0709,0.0735,0.08,0.0868,0.0946,0.1007,0.1089,0.1151,0.1198,0.1223,0.1238,0.1253,0.1304,0.1251,0.1251,0.1257,0.1364,0.1338,0.1344,0.1309,0.1311,0.1313,0.1337,0,0.0591,0.0599,0.063,0.0672,0.0687,0.0755,0.0813,0.0903,0.099,0.1082,0.1144,0.1239,0.1233,0.1292,0.1308,0.1326,0.1333,0.13,0.1317,0.1317,0.1289,0.1355,0.132,0.1343,0.1345,0.1346,0.1347,0,0.0553,0.0565,0.0595,0.069,0.0709,0.0773,0.0905,0.0973,0.1109,0.1186,0.1294,0.1346,0.1424,0.1391,0.1448,0.1444,0.1419,0.1403,0.1403,0.1375,0.1308,0.1288,0.1362,0.1361,0.136,0.1359,0.1358,0,0.0504,0.0549,0.0586,0.06,0.0705,0.0788,0.0884,0.1024,0.1109,0.1286,0.136,0.1463,0.153,0.1538,0.1538,0.1509,0.1576,0.1507,0.1449,0.1445,0.1436,0.1427,0.152,0.1519,0.1519,0.1519,0.1519,0,0.0447,0.0479,0.0591,0.0605,0.0691,0.0811,0.0943,0.1056,0.1225,0.1317,0.1442,0.1516,0.1577,0.1616,0.1585,0.1579,0.1615,0.1488,0.1465,0.1452,0.1445,0.144,0.1431,0.152,0.152,0.152,0.152,0,0.0379,0.0435,0.0484,0.0613,0.067,0.0756,0.0962,0.1053,0.1247,0.1368,0.1431,0.1587,0.1653,0.1682,0.1693,0.1639,0.1622,0.1591,0.1606,0.1579,0.1453,0.1446,0.1518,0.1518,0.1518,0.1517,0.1517,0,0.0349,0.0355,0.0465,0.0501,0.0577,0.072,0.0803,0.1034,0.1124,0.1378,0.1408,0.1565,0.1626,0.1655,0.1686,0.1668,0.1624,0.1616,0.1511,0.149,0.1461,0.1454,0.1447,0.1517,0.1517,0.1517,0.1516,0,0.0257,0.0298,0.0334,0.0405,0.0507,0.0592,0.0753,0.0824,0.1066,0.1219,0.1384,0.1479,0.1555,0.1606,0.164,0.1599,0.1636,0.1611,0.1608,0.1509,0.1489,0.1458,0.1452,0.1515,0.1516,0.1516,0.1516,0,0.0193,0.0179,0.0231,0.031,0.0403,0.0487,0.0578,0.073,0.0872,0.1166,0.1201,0.1385,0.1523,0.157,0.1585,0.1592,0.1525,0.1456,0.146,0.1462,0.1438,0.1404,0.1411,0,0,0,0,0,0.0121,0.0104,0.0137,0.0226,0.0321,0.0394,0.0543,0.0642,0.0856,0.0938,0.1096,0.1173,0.1311,0.1411,0.1395,0.1502,0.1489,0.1476,0.1399,0.1509,0.1511,0.1491,0,0,0,0,0,0,0.007,0.007,0.0094,0.0161,0.0218,0.0324,0.0424,0.0558,0.0628,0.0844,0.0916,0.1095,0.1214,0.1291,0.1366,0.139,0.1319,0.159,0.1588,0.1509,0.151,0.1511,0.1491,0,0,0,0,0]},{"header":{"parameterUnit":"m.s-1","parameterCategory":2,"la1":30.2991,"la2":30.254,"lo1":-89.0895,"lo2":-89.0444,"dy":0.0017,"dx":0.0017,"nx":28,"ny":28,"refTime":"2024-06-25T03:00:00:Z","depth":"4","parameterNumber":3,"parameterNumberName":"V-component_of_CURRENTS"},"data":[0,0,0,0,0,0,0,0,0,0,0,0,0,0,0,0,0,0,0,0,0,0,0,0,0,0,0,0,0,0,0,0,0,0,0,0,0,0,0,0,0,0,0,0,0,0,0,0,0,0,0,0,0,0,0,0,0,0,-0.0036,-0.0036,0,0.0019,0.002,0.0021,0.0033,0.0032,0.0032,0.0031,-0.0073,-0.0076,-0.0078,0,0,0,0,0,0,0,0,0,0,0,0,0,-0.0091,-0.009,-0.0036,-0.0036,-0.0035,0.0019,0.002,0.0021,0.0033,0.0032,0.0031,0.0031,-0.0073,-0.0075,-0.0078,0,0,0,0,0,0,0,0,0,0,0,0,0,-0.0052,-0.009,-0.0037,-0.0025,-0.0023,0.0019,0.002,0.0021,0.0033,0.0032,0.0031,0.003,-0.0072,-0.0075,-0.0078,-0.008,0,0,-0.0088,-0.009,0,0,0,0,0,0,0,0,-0.0055,-0.005,-0.0027,-0.0025,-0.0024,0.0016,-0.0037,-0.0021,0.0033,0.0014,0.0031,0.003,-0.0059,-0.0063,-0.0045,-0.0085,-0.009,-0.0089,-0.0091,-0.0092,-0.0093,0,0,0,0,0,0,0,-0.0057,-0.0052,-0.0012,-0.0026,-0.0024,-0.0008,-0.0004,-0.0033,-0.0019,0.0016,0.0016,0.0019,-0.0059,-0.0042,-0.0048,-0.0091,-0.0089,-0.0092,-0.0094,-0.0095,-0.0191,-0.0191,0,0,0,0,0,0,-0.007,-0.0055,-0.0014,-0.0011,-0.0044,-0.0007,-0.0002,0.0006,-0.0015,-0.0019,0.002,0.0019,-0.0036,-0.0044,-0.0052,-0.0091,-0.0092,-0.0095,-0.0097,-0.019,-0.0191,-0.0191,0,0,0,0,0,0,-0.0071,-0.0066,-0.0016,-0.0034,-0.0027,-0.0005,0.0004,0.0008,0.0021,-0.0011,-0.0017,0.0028,-0.0037,-0.0048,-0.0094,-0.0094,-0.0097,-0.01,-0.019,-0.019,-0.0191,-0.0147,0,0,0,0,0,0,-0.0073,-0.0067,-0.0064,-0.0034,-0.0026,0.0014,0.0005,0.0009,0.0023,0.0023,-0.0006,-0.0016,-0.0039,-0.0088,-0.0097,-0.0099,-0.0102,-0.0189,-0.019,-0.0191,-0.0148,-0.0146,-0.0145,0,0,0,0,0,-0.0075,-0.0056,-0.0064,-0.006,-0.0024,0.0014,0.0021,0.0034,0.0025,0.0041,0.0001,-0.0015,-0.0101,-0.0092,-0.0101,-0.0104,-0.0188,-0.019,-0.0191,-0.0149,-0.0147,-0.0145,0,0,0,0,0,0,-0.0076,-0.0053,-0.0061,-0.0038,-0.0017,0.0015,0.0033,0.0035,0.0025,0.0012,-0.0024,-0.0036,-0.0078,-0.01,-0.0088,-0.0137,-0.0147,-0.015,-0.0111,-0.011,-0.0109,-0.0093,-0.0105,0,0,0,0,0,-0.0078,-0.006,-0.004,-0.0023,-0.0012,0.0006,0.0021,0.0028,0.0023,0.0021,-0.0004,-0.0045,-0.0087,-0.0106,-0.0142,-0.0165,-0.0206,-0.0175,-0.0173,-0.0172,-0.0167,-0.0257,-0.0263,-0.0196,-0.0196,-0.0196,0,0,-0.0077,-0.006,-0.0052,-0.0022,-0.0006,0.003,0.0015,0.0041,0.006,0.0005,0.001,-0.0044,-0.0095,-0.0125,-0.0144,-0.0144,-0.0208,-0.0173,-0.0172,-0.0168,-0.0259,-0.0266,-0.0272,-0.0196,-0.0196,-0.0196,0,0,-0.004,-0.0048,-0.0011,0.0011,0.0036,0.0044,0.0049,0.0073,0.0071,0.0063,0.0016,-0.0039,-0.0078,-0.0117,-0.0144,-0.0158,-0.0204,-0.0171,-0.0144,-0.0231,-0.0237,-0.0243,-0.0279,-0.0289,-0.0163,-0.0163,-0.0163,0,-0.0042,0.0011,0.0005,0.0054,0.0075,0.0052,0.0099,0.0099,0.0099,0.008,0.0066,-0.0031,-0.0071,-0.0128,-0.013,-0.0153,-0.02,-0.0142,-0.0229,-0.0236,-0.0243,-0.0279,-0.029,-0.0161,-0.0161,-0.0161,-0.0161,0,0.0037,0.0072,0.0098,0.0143,0.016,0.0195,0.019,0.0186,0.0162,0.0143,0.0077,0.0011,-0.0052,-0.0072,-0.0102,-0.0172,-0.0187,-0.0222,-0.0229,-0.0247,-0.0284,-0.0296,-0.0158,-0.0159,-0.0159,-0.016,0,0,0.0054,0.0136,0.0146,0.018,0.0209,0.0233,0.0243,0.0238,0.0219,0.0182,0.0145,0.007,0.0003,-0.0032,-0.0094,-0.0158,-0.0237,-0.0204,-0.021,-0.0232,-0.0406,-0.0348,-0.0356,-0.0301,-0.0304,-0.0306,-0.0402,0,0.0118,0.0222,0.0242,0.0318,0.0364,0.0341,0.0351,0.0328,0.0277,0.0227,0.013,0.0063,0.0026,-0.0026,-0.0097,-0.0225,-0.0273,-0.0205,-0.0392,-0.0396,-0.0338,-0.037,-0.0314,-0.0412,-0.0415,-0.0417,-0.0418,0,0.0199,0.0253,0.035,0.0398,0.0413,0.0448,0.0425,0.0425,0.0334,0.0285,0.0189,0.0096,-0.0016,-0.0048,-0.0242,-0.0206,-0.029,-0.037,-0.0377,-0.0348,-0.0363,-0.04,-0.0442,-0.044,-0.0438,-0.0437,-0.0435,0,0.0228,0.0326,0.0401,0.0427,0.0475,0.0496,0.0499,0.044,0.0421,0.0301,0.0252,0.0099,0.001,-0.0136,-0.0298,-0.0289,-0.0508,-0.0519,-0.053,-0.0526,-0.0567,-0.056,-0.0634,-0.0634,-0.0634,-0.0634,-0.0633,0,0.0291,0.0349,0.0425,0.0469,0.0522,0.0536,0.0552,0.0515,0.0455,0.0408,0.0275,0.0196,-0.0024,-0.0178,-0.0309,-0.046,-0.0521,-0.0526,-0.0557,-0.0541,-0.0531,-0.0574,-0.0566,-0.0637,-0.0636,-0.0636,-0.0635,0,0.0314,0.0374,0.0456,0.0526,0.0548,0.0578,0.061,0.0602,0.0539,0.0468,0.0428,0.0246,0.0049,-0.0144,-0.0392,-0.046,-0.062,-0.0648,-0.0592,-0.062,-0.0566,-0.0555,-0.0664,-0.0663,-0.0662,-0.0662,-0.0661,0,0.0332,0.0387,0.0488,0.0531,0.0572,0.0624,0.065,0.0636,0.0615,0.0495,0.045,0.0264,0.0129,-0.0168,-0.0364,-0.0593,-0.0607,-0.0672,-0.0627,-0.0554,-0.0575,-0.0565,-0.0555,-0.066,-0.0659,-0.0659,-0.0659,0,0.0347,0.0393,0.0454,0.0545,0.0607,0.0663,0.0694,0.0685,0.0636,0.0602,0.0455,0.0293,0.009,-0.0145,-0.0323,-0.0487,-0.0634,-0.0663,-0.0665,-0.0623,-0.0551,-0.0569,-0.056,-0.0656,-0.0657,-0.0657,-0.0657,0,0.0342,0.0377,0.0461,0.0533,0.0626,0.0667,0.0686,0.0669,0.0654,0.0534,0.0487,0.0268,0.0138,-0.0089,-0.0267,-0.0416,-0.0428,-0.0454,-0.0467,-0.0473,-0.0383,-0.026,-0.0307,0,0,0,0,0,0.0326,0.0359,0.0434,0.0514,0.0615,0.0653,0.0698,0.0701,0.0664,0.0579,0.0538,0.0353,0.0099,-0.0029,-0.0164,-0.0241,-0.0457,-0.04,-0.0495,-0.064,-0.0643,-0.0565,0,0,0,0,0,0,0.0311,0.0379,0.0415,0.0497,0.0543,0.0627,0.0655,0.0626,0.0578,0.0528,0.0389,0.0341,0.0085,0.0165,-0.0168,-0.0213,-0.0282,-0.0517,-0.0519,-0.0638,-0.0641,-0.0644,-0.0564,0,0,0,0,0]}]]